CZ-6A DEB, 61493

Orbit data source: Space-Track

CZ-6A DEB, 61493 is space debris in LEO originally from a launch on Tue, 06 Aug 2024 UTC launched from the Taiyaun Space Center, China (TSC). Debris objects in space refer to the collection of defunct objects orbiting the Earth. Examples of debris include non-operational satellites, rocket bodies, and fragments generated from explosions, collisions, or faulty payload assembly.

Loading next visibility...
Identifier
61493, 2024-140ABB
Orbit
LEO
Country
Flag of CNCN / PRC
Related business
Manufacturer
SAST
Mission
Spacecraft
Bus & Motor
Unknown
Mass
Unknown
Launch date (UTC)
2024-08-06 (2 years ago)
Launch vehicle
Unknown
Launch site
Taiyaun Space Center, China (TSC)
Object type
Payload
Rocket body
Debris
Shape & HBR
Unknown shape, 0.2 m
Radar Cross Section
Medium (>0.1 m² and <1 m²)

Expand to show TLE details & history
Last TLE update: 14 hours ago

TLE from 14 hours ago
0 CZ-6A DEB
1 61493U 24140ABB 26171.25919947  .00000346  00000-0  15277-3 0  9995
2 61493  89.0070 274.7442 0046705 144.6612 215.7690 14.20442243 91023
Epoch: 2026-06-20T06:13Z
TLE epoch observation values (Epoch: 2026-06-20T06:13:14.834Z)
Latitude
0.00002°
Longitude
-87.044°
Altitude
854.263 km
Speed
7.411 km/s
True Right ascension
18h 18m 58s
True Declination
0° 00' 00"
Sunlit
Object was in full shadow at epoch
Visualization orbit readout
Latitude
Unknown
Longitude
Unknown
Altitude
Unknown
Speed
Unknown
Apparent Right ascension
Unknown
Apparent Declination
Unknown
Sunlit
N/A
Visualization observer readout
Local Sidereal Time
07:21:08
Azimuth
Unknown
Elevation
Unknown
Doppler factor
Unknown
Orbital elements
Apogee altitude
854.431 km
Perigee altitude
787.185 km
Semi-major axis
7,198.945 km
Eccentricity
0.00467
Inclination
89.007°
RAAN
274.7442°
Arg. of periapsis
144.6612°
True anomaly
215.45764°
Mean anomaly
215.769°
Eccentric anomaly
215.61317°
Mean motion
3.55337 °/min
Orbital period
101.31 mins
BSTAR
0.00015277
Loading maneuver chart data...
Computing Atmospheric mass density...
Loading historical data...
Loading historical data...
Loading historical data...
Loading historical data...
Loading historical data...
Loading historical data...
Loading historical data...

Documentation

Showing up to 5 results
|